Weather in Verba

Ukraine / Rovno District     50°16′48″N   25°36′02″E
temp.,
°C
wind,
m/s
gust,
m/s
humid.,
%
clouds,
%
prec.,
mm/h
press.,
hPa
HPBL,
m
24 january, sun
sun2423:00+2sse51088100 0.0 1002173
02:00+2sse4789100 0.0 1001131
05:00+1se3693100 0.0 999118
08:00+1sse3693100 0.0 998134
11:00+2s4793100 0.3 998288
14:00+3sse3596100 0.9 997104
17:00+3s489176 0.0 999139
20:00+3s488959 0.0 1000133
25 january, mon
mon2523:00+2ssw348874 0.0 100157
02:00+1sse119187 0.0 100022
05:00+1ene3493100 0.0 99978
08:00+1ene61191100 0.0 996289
11:00+3se61389100 0.1 994627
14:00+3s3796100 2.0 992343
17:00+2ssw4892100 0.6 992253
20:00+1wsw4895100 0.6 993294
26 january, tue
tue2623:00−1w71295100 0.4 994702
02:00−1w91495100 1.3 996871
05:00−1w101695100 1.1 9971053
08:00−1w101692100 2.0 1000906
11:00−1w9149499 0.2 1002928
14:000w91382100 0.6 10041045
17:000w81384100 0.1 10061049
20:00−1w71284100 0.1 1007813
27 january, wed
wed2723:00−3w5128915 0.0 1008531
02:00−4wsw511907 0.0 1009379
05:00−4wsw499032 0.0 1008335
08:00−4w489453 0.0 1008359
11:00−2wnw5786100 0.1 1008717
14:00−2wnw5784100 0.1 1007785
17:00−1wnw3785100 0.1 1007539
20:00−2wnw5995100 0.1 1007452
28 january, thu
thu2823:00−2nw5994100 0.1 1006589
02:00−2wnw61193100 0.6 1005649
05:00−2wnw61093100 0.3 1004654
08:00−3wnw61193100 0.4 1004617
11:00−2wnw81189100 0.2 1003917
14:00−2wnw81293100 0.8 1002947
17:00−2wnw71285100 0.6 1003883
20:00−3w6128898 0.6 1003670